DW9246 Weather Reports


time (UTC)temp
F
wind
direction
speed
knots
gust
knots
rain 1hr
in
rain 24hr
in
rain mn
in
humidity
%
barometer
mb
20210920051016 62 296 3.5 9.6 0.00 0.00 0.00 55 1018.6
20210920050014 62 321 1.7 7.0 0.00 0.00 0.00 55 1018.8
20210920045015 62 276 3.5 9.6 0.00 0.00 0.00 54 1018.9
20210920044015 62 296 4.3 7.8 0.00 0.00 0.00 55 1018.6
20210920043015 62 295 5.2 10.4 0.00 0.00 0.00 56 1018.5
20210920042015 62 312 5.2 10.4 0.00 0.00 0.00 56 1018.5
20210920041011 62 309 6.1 13.0 0.00 0.00 0.00 55 1018.5
20210920040016 62 302 6.1 11.3 0.00 0.00 0.00 55 1018.4
20210920035015 63 304 5.2 10.4 0.00 0.00 0.00 53 1018.5
20210920034017 63 290 6.1 10.4 0.00 0.00 0.00 53 1018.5
20210920033014 63 296 6.1 10.4 0.00 0.00 0.00 53 1018.5
20210920032016 63 298 2.6 6.1 0.00 0.00 0.00 54 1018.5
20210920031015 62 319 4.3 8.7 0.00 0.00 0.00 54 1018.6
20210920030016 62 317 4.3 8.7 0.00 0.00 0.00 55 1018.6
20210920025015 63 324 6.1 10.4 0.00 0.00 0.00 55 1018.6
20210920024016 62 324 4.3 9.6 0.00 0.00 0.00 56 1018.5
20210920023015 64 17 1.7 5.2 0.00 0.00 0.00 53 1018.6
20210920022016 64 341 3.5 7.0 0.00 0.00 0.00 52 1018.7
20210920021012 64 336 1.7 3.5 0.00 0.00 0.00 53 1018.7
20210920020016 64 322 3.5 8.7 0.00 0.00 0.00 53 1018.9
20210920015016 64 322 5.2 9.6 0.00 0.00 0.00 54 1018.7
20210920014017 64 315 5.2 9.6 0.00 0.00 0.00 54 1018.6
20210920013016 65 297 5.2 8.7 0.00 0.00 0.00 53 1018.6
20210920012016 65 298 1.7 4.3 0.00 0.00 0.00 52 1018.8
20210920011016 66 314 1.7 3.5 0.00 0.00 0.00 51 1018.7
20210920010016 67 293 3.5 9.6 0.00 0.00 0.00 50 1018.9
20210920005016 66 290 5.2 11.3 0.00 0.00 0.00 50 1018.9
20210920004015 67 268 0.9 5.2 0.00 0.00 0.00 51 1019.1
20210920003017 67 26 2.6 6.1 0.00 0.00 0.00 49 1019.0
20210920002015 66 309 0.9 4.3 0.00 0.00 0.00 52 1019.1
20210920001015 66 327 6.1 12.2 0.00 0.00 0.00 53 1019.2
20210920000017 65 326 3.5 9.6 0.00 0.00 0.00 53 1019.1
20210919235013 65 321 7.0 11.3 0.00 0.00 0.00 53 1019.4
20210919234015 65 322 6.1 10.4 0.00 0.00 0.00 53 1019.4
20210919233016 65 327 5.2 8.7 0.00 0.00 0.00 53 1019.5
20210919232015 65 323 5.2 11.3 0.00 0.00 0.00 53 1019.5
20210919231015 65 325 6.1 8.7 0.00 0.00 0.00 53 1019.3
20210919230015 65 334 5.2 7.8 0.00 0.00 0.00 53 1019.3
20210919225010 66 318 3.5 6.1 0.00 0.00 0.00 53 1019.5
20210919224011 65 304 0.9 7.0 0.00 0.00 0.00 53 1019.5
20210919223011 67 290 0.0 2.6 0.00 0.00 0.00 51 1019.6
20210919222015 67 357 1.7 3.5 0.00 0.00 0.00 50 1019.7
20210919221016 67 343 1.7 6.1 0.00 0.00 0.00 50 1019.6
20210919220011 67 335 0.9 3.5 0.00 0.00 0.00 51 1019.6
20210919215014 67 332 1.7 3.5 0.00 0.00 0.00 51 1019.8
20210919214016 68 40 1.7 4.3 0.00 0.00 0.00 50 1019.6
20210919213012 69 92 1.7 4.3 0.00 0.00 0.00 48 1019.6
20210919212015 69 315 2.6 9.6 0.00 0.00 0.00 46 1019.6
20210919211012 69 305 7.0 11.3 0.00 0.00 0.00 46 1019.5
20210919210015 70 309 7.8 13.0 0.00 0.00 0.00 45 1019.3
20210919205012 70 307 7.0 13.0 0.00 0.00 0.00 45 1019.3
20210919204015 69 298 7.0 10.4 0.00 0.00 0.00 45 1019.5
20210919203014 69 297 4.3 7.8 0.00 0.00 0.00 46 1019.3
20210919202011 68 304 3.5 6.1 0.00 0.00 0.00 46 1019.4
20210919201015 69 305 4.3 7.0 0.00 0.00 0.00 44 1019.2
20210919200011 68 313 5.2 7.0 0.00 0.00 0.00 44 1019.3
20210919195013 68 325 4.3 7.0 0.00 0.00 0.00 45 1019.0
20210919194015 68 316 4.3 7.0 0.00 0.00 0.00 43 1018.9
20210919193015 68 312 3.5 6.1 0.00 0.00 0.00 42 1018.8
20210919192014 69 310 4.3 7.0 0.00 0.00 0.00 40 1018.8
20210919191010 70 309 6.1 7.8 0.00 0.00 0.00 39 1018.8
20210919190014 70 306 6.1 9.6 0.00 0.00 0.00 37 1018.9
20210919185016 71 307 5.2 7.8 0.00 0.00 0.00 37 1018.6
20210919184012 71 301 6.1 9.6 0.00 0.00 0.00 35 1018.4
20210919183016 71 298 8.7 11.3 0.00 0.00 0.00 35 1018.2
20210919182016 71 295 7.8 12.2 0.00 0.00 0.00 35 1018.2
20210919181011 72 296 7.8 10.4 0.00 0.00 0.00 35 1018.0
20210919180016 72 291 7.0 10.4 0.00 0.00 0.00 34 1017.9
20210919175015 73 288 7.0 11.3 0.00 0.00 0.00 33 1017.9
20210919174017 74 286 6.1 13.9 0.00 0.00 0.00 32 1017.8
20210919173010 75 278 6.1 11.3 0.00 0.00 0.00 31 1017.8
20210919172016 75 282 5.2 9.6 0.00 0.00 0.00 32 1017.8
20210919171013 76 277 7.0 13.9 0.00 0.00 0.00 31 1017.7
20210919170013 76 273 7.0 13.0 0.00 0.00 0.00 31 1017.7
20210919165014 76 266 8.7 14.8 0.00 0.00 0.00 30 1017.6
20210919164015 76 268 7.8 13.9 0.00 0.00 0.00 32 1017.7
20210919163012 76 265 8.7 14.8 0.00 0.00 0.00 33 1017.5
20210919162015 77 273 7.0 14.8 0.00 0.00 0.00 33 1017.4
20210919161012 77 278 7.0 13.0 0.00 0.01 0.00 33 1017.5
20210919160012 77 272 8.7 15.6 0.00 0.03 0.00 34 1017.5
20210919155011 78 278 7.0 13.0 0.00 0.05 0.00 34 1017.4
20210919154011 77 272 7.0 14.8 0.00 0.07 0.00 34 1017.4
20210919153013 77 255 7.8 14.8 0.00 0.09 0.00 35 1017.4
20210919152011 77 268 7.8 14.8 0.00 0.09 0.00 35 1017.4
20210919151014 77 276 6.1 12.2 0.00 0.09 0.00 35 1017.5
20210919150012 77 282 7.8 14.8 0.00 0.09 0.00 35 1017.5
20210919145012 77 263 8.7 16.5 0.00 0.09 0.00 36 1017.5
20210919144012 77 265 6.1 14.8 0.00 0.09 0.00 36 1017.6
20210919143012 77 252 7.0 14.8 0.00 0.09 0.00 36 1017.7
20210919142016 77 256 7.8 13.9 0.00 0.09 0.00 36 1017.7
20210919141014 76 245 7.0 16.5 0.00 0.09 0.00 35 1017.7
20210919140013 76 252 7.8 13.9 0.00 0.09 0.00 36 1018.0
20210919135012 77 270 5.2 11.3 0.00 0.09 0.00 34 1018.0
20210919134015 76 273 6.1 13.0 0.00 0.09 0.00 36 1018.1
20210919133018 76 276 7.0 13.0 0.00 0.09 0.00 37 1018.3
20210919132012 75 266 7.8 13.0 0.00 0.09 0.00 36 1018.4
20210919131015 76 248 6.1 12.2 0.00 0.09 0.00 37 1018.5
20210919130011 75 265 6.1 12.2 0.00 0.09 0.00 36 1018.5
20210919125015 75 265 7.8 15.6 0.00 0.09 0.00 38 1018.6
20210919124013 74 247 8.7 15.6 0.00 0.09 0.00 38 1018.7
20210919123013 74 259 7.8 14.8 0.00 0.09 0.00 38 1018.8
20210919122012 74 263 7.8 16.5 0.00 0.09 0.00 39 1018.9
20210919121011 73 257 8.7 15.6 0.00 0.09 0.00 39 1019.0
20210919120013 74 270 7.8 13.0 0.00 0.09 0.00 39 1019.1
20210919115013 74 240 5.2 15.6 0.00 0.09 0.00 38 1019.1
20210919114012 73 254 6.1 14.8 0.00 0.09 0.00 40 1019.2
20210919113016 73 329 3.5 8.7 0.00 0.09 0.00 40 1019.1
20210919112014 73 286 3.5 7.8 0.00 0.09 0.00 39 1019.2
20210919111012 73 297 1.7 7.8 0.00 0.09 0.00 41 1019.3
20210919110017 72 305 3.5 10.4 0.00 0.09 0.00 42 1019.4
20210919105012 71 309 5.2 13.0 0.00 0.09 0.00 42 1019.3
20210919104014 71 314 4.3 11.3 0.00 0.09 0.00 42 1019.5
20210919103014 71 331 7.8 14.8 0.00 0.09 0.00 43 1019.4
20210919102013 71 306 8.7 17.4 0.00 0.09 0.00 41 1019.5
20210919101016 70 301 7.8 17.4 0.00 0.09 0.00 41 1019.6
20210919100011 70 308 7.0 19.1 0.00 0.09 0.00 43 1019.6
20210919095015 69 335 6.1 21.7 0.00 0.09 0.00 42 1019.6
20210919094015 69 339 8.7 18.2 0.00 0.09 0.00 44 1019.7
20210919093011 68 337 9.6 18.2 0.00 0.09 0.00 44 1019.7
20210919092012 68 329 9.6 16.5 0.00 0.09 0.00 45 1019.7
20210919091011 67 315 9.6 18.2 0.00 0.09 0.00 46 1019.8
20210919090015 67 196 5.2 13.0 0.00 0.09 0.00 46 1019.8
20210919085012 67 172 3.5 10.4 0.00 0.09 0.00 49 1019.6
20210919084011 66 217 3.5 7.0 0.00 0.13 0.00 47 1019.5
20210919083010 66 312 4.3 11.3 0.00 0.13 0.00 48 1019.3
20210919082014 65 268 2.6 7.0 0.00 0.13 0.00 49 1019.3
20210919081015 65 258 3.5 7.8 0.00 0.13 0.00 48 1019.2
20210919080016 65 357 5.2 13.9 0.00 0.13 0.00 49 1019.3
20210919075015 64 299 5.2 14.8 0.00 0.13 0.00 51 1019.1
20210919074015 64 213 2.6 8.7 0.00 0.13 0.00 51 1018.8
20210919073016 63 235 6.1 11.3 0.00 0.13 0.00 51 1018.7
20210919072015 63 266 7.0 14.8 0.00 0.13 0.00 52 1018.6
20210919071014 63 322 6.1 18.2 0.00 0.13 0.00 52 1018.4
20210919070014 62 51 4.3 12.2 0.00 0.13 0.00 52 1018.6
20210919065017 62 154 3.5 7.8 0.00 0.13 0.00 56 1018.6
20210919064014 62 158 2.6 7.0 0.00 0.13 0.00 54 1018.6
20210919063014 61 187 2.6 4.3 0.00 0.13 0.00 55 1018.6
20210919062015 60 212 1.7 7.0 0.00 0.13 0.00 56 1018.3
20210919061014 60 248 0.0 2.6 0.00 0.13 0.00 56 1018.2
20210919060016 59 270 1.7 3.5 0.00 0.13 0.00 56 1018.3
20210919055015 59 316 1.7 4.3 0.00 0.13 0.00 56 1018.2
20210919054014 59 255 0.9 3.5 0.00 0.13 0.00 57 1018.1
20210919053016 59 200 0.9 4.3 0.00 0.13 0.00 55 1018.1
20210919052015 60 195 1.7 5.2 0.00 0.13 0.00 53 1017.8